GW1853 Weather Reports


time (UTC)temp
F
wind
direction
speed
knots
gust
knots
rain 1hr
in
rain 24hr
in
rain mn
in
humidity
%
barometer
mb
20260510020537 58 50 4.3 9.6 0.00 0.00 0.00 71 1009.3
20260510015518 58 48 6.1 11.3 0.00 0.00 0.00 72 1009.4
20260510014517 58 50 4.3 11.3 0.00 0.00 0.00 72 1009.6
20260510013518 59 51 4.3 9.6 0.00 0.00 0.00 71 1009.7
20260510012517 59 46 4.3 10.4 0.00 0.00 0.00 71 1009.7
20260510011518 59 51 5.2 11.3 0.00 0.00 0.00 71 1009.8
20260510010537 59 53 4.3 10.4 0.00 0.00 0.00 71 1009.9
20260510005517 59 47 5.2 9.6 0.00 0.00 0.00 71 1010.1
20260510004518 60 48 4.3 8.7 0.00 0.00 0.00 71 1010.2
20260510003518 60 53 4.3 11.3 0.00 0.00 0.00 70 1010.4
20260510002517 60 45 4.3 10.4 0.00 0.00 0.00 70 1010.5
20260510001518 60 58 4.3 11.3 0.00 0.00 0.00 70 1010.6
20260510000537 60 53 4.3 9.6 0.00 0.00 0.00 69 1010.7
20260509235518 60 49 5.2 11.3 0.00 0.00 0.00 70 1010.8
20260509234537 61 50 5.2 9.6 0.00 0.00 0.00 70 1010.8
20260509233517 61 56 6.1 11.3 0.00 0.00 0.00 70 1010.9
20260509232517 61 48 4.3 9.6 0.00 0.00 0.00 70 1010.9
20260509231517 61 50 3.5 8.7 0.00 0.00 0.00 70 1011.0
20260509230517 61 54 4.3 9.6 0.00 0.00 0.00 70 1011.1
20260509225517 61 52 4.3 9.6 0.00 0.00 0.00 70 1011.1
20260509224517 62 52 3.5 8.7 0.00 0.00 0.00 70 1011.1
20260509223537 62 54 3.5 9.6 0.00 0.00 0.00 70 1011.1
20260509222517 62 51 4.3 8.7 0.00 0.00 0.00 70 1011.2
20260509221518 62 54 4.3 8.7 0.00 0.00 0.00 71 1011.2
20260509220517 62 52 3.5 7.8 0.00 0.00 0.00 71 1011.2
20260509215516 62 52 4.3 9.6 0.00 0.00 0.00 71 1011.2
20260509214517 62 54 3.5 7.8 0.00 0.00 0.00 71 1011.2
20260509213517 63 49 3.5 7.0 0.00 0.00 0.00 71 1011.3
20260509212537 63 43 2.6 7.0 0.00 0.00 0.00 71 1011.4
20260509211517 63 50 2.6 4.3 0.00 0.00 0.00 71 1011.5
20260509210517 63 48 2.6 4.3 0.00 0.00 0.00 70 1011.4
20260509205517 63 56 2.6 5.2 0.00 0.00 0.00 70 1011.4
20260509204517 63 54 2.6 7.8 0.00 0.00 0.00 70 1011.3
20260509203517 64 55 2.6 7.8 0.00 0.00 0.00 70 1011.4
20260509202557 64 53 2.6 6.1 0.00 0.00 0.00 69 1011.4
20260509201517 64 51 2.6 4.3 0.00 0.00 0.00 68 1011.3
20260509200517 65 52 2.6 5.2 0.00 0.00 0.00 67 1011.4
20260509195517 65 53 1.7 4.3 0.00 0.00 0.00 67 1011.3
20260509194517 64 51 2.6 7.8 0.00 0.00 0.00 68 1011.1
20260509193517 64 53 2.6 6.1 0.00 0.00 0.00 69 1011.1
20260509192517 65 44 1.7 4.3 0.00 0.00 0.00 68 1011.0
20260509191517 66 48 0.9 2.6 0.00 0.00 0.00 66 1011.0
20260509190517 67 54 0.9 2.6 0.00 0.00 0.00 64 1010.9
20260509185517 67 61 0.9 3.5 0.00 0.00 0.00 63 1010.9
20260509184517 68 64 1.7 3.5 0.00 0.00 0.00 62 1010.8
20260509183517 69 63 1.7 3.5 0.00 0.00 0.00 61 1010.7
20260509182518 69 59 0.9 3.5 0.00 0.00 0.00 60 1010.7
20260509181537 70 63 1.7 3.5 0.00 0.00 0.00 57 1010.6
20260509180537 70 65 1.7 6.1 0.00 0.00 0.00 56 1010.6
20260509175517 71 66 2.6 7.8 0.00 0.00 0.00 56 1010.5
20260509174517 71 65 2.6 9.6 0.00 0.00 0.00 56 1010.5
20260509173517 71 61 4.3 7.8 0.00 0.00 0.00 56 1010.5
20260509172517 71 56 2.6 7.0 0.00 0.00 0.00 56 1010.6
20260509171537 71 53 2.6 6.1 0.00 0.00 0.00 56 1010.8
20260509170517 72 67 3.5 7.8 0.00 0.00 0.00 53 1010.8
20260509165517 73 66 4.3 8.7 0.00 0.00 0.00 53 1010.9
20260509164517 73 66 5.2 9.6 0.00 0.00 0.00 53 1010.8
20260509163517 73 69 1.7 7.0 0.00 0.00 0.00 52 1010.9
20260509162537 73 68 3.5 8.7 0.00 0.00 0.00 52 1010.9
20260509161537 73 75 3.5 7.0 0.00 0.00 0.00 52 1010.9
20260509160517 73 86 2.6 7.8 0.00 0.00 0.00 52 1011.0
20260509155517 74 108 2.6 7.8 0.00 0.00 0.00 54 1011.1
20260509154517 74 61 4.3 9.6 0.00 0.00 0.00 52 1011.1
20260509153517 74 62 2.6 6.1 0.00 0.00 0.00 51 1011.2
20260509152517 75 91 1.7 6.1 0.00 0.00 0.00 52 1011.5
20260509151517 75 78 1.7 8.7 0.00 0.00 0.00 53 1011.7
20260509150537 74 74 4.3 10.4 0.00 0.00 0.00 52 1011.8
20260509145517 75 66 4.3 10.4 0.00 0.00 0.00 51 1011.8
20260509144517 76 67 3.5 10.4 0.00 0.00 0.00 50 1011.9
20260509143517 76 130 3.5 8.7 0.00 0.00 0.00 52 1011.9
20260509142537 76 129 3.5 9.6 0.00 0.00 0.00 54 1011.8
20260509141517 75 135 2.6 7.0 0.00 0.00 0.00 52 1011.8
20260509140517 74 132 3.5 9.6 0.00 0.00 0.00 54 1011.8
20260509135517 74 81 2.6 10.4 0.00 0.00 0.00 50 1011.7
20260509134517 75 142 3.5 8.7 0.00 0.00 0.00 53 1011.6
20260509133517 75 137 3.5 9.6 0.00 0.00 0.00 50 1011.7
20260509132537 75 86 2.6 7.8 0.00 0.00 0.00 51 1011.8
20260509131517 75 87 2.6 7.0 0.00 0.00 0.00 50 1011.9
20260509130517 74 80 1.7 7.8 0.00 0.00 0.00 50 1012.0
20260509125517 74 124 1.7 9.6 0.00 0.00 0.00 53 1012.0
20260509124517 74 84 4.3 10.4 0.00 0.00 0.00 52 1012.1
20260509123537 74 66 4.3 10.4 0.00 0.00 0.00 52 1012.1
20260509122517 73 119 1.7 6.1 0.00 0.00 0.00 55 1012.2
20260509121517 72 102 2.6 7.8 0.00 0.00 0.00 55 1012.3
20260509120517 72 66 2.6 7.8 0.00 0.00 0.00 56 1012.4
20260509115537 72 88 3.5 8.7 0.00 0.00 0.00 56 1012.6
20260509114517 72 103 2.6 7.0 0.00 0.00 0.00 57 1012.7
20260509113537 72 90 3.5 8.7 0.00 0.00 0.00 58 1012.8
20260509112517 72 122 2.6 10.4 0.00 0.00 0.00 59 1012.8
20260509111517 72 129 2.6 9.6 0.00 0.00 0.00 61 1013.0
20260509110517 72 137 2.6 9.6 0.00 0.00 0.00 59 1013.0
20260509105517 71 147 3.5 7.8 0.00 0.00 0.00 60 1013.1
20260509104517 70 123 2.6 6.1 0.00 0.00 0.00 59 1013.1
20260509103517 70 59 2.6 6.1 0.00 0.00 0.00 61 1013.1
20260509102518 70 47 2.6 7.0 0.00 0.00 0.00 60 1013.2
20260509101517 69 68 1.7 6.1 0.00 0.00 0.00 60 1013.2
20260509100537 70 134 2.6 5.2 0.00 0.00 0.00 60 1013.2
20260509095517 69 65 1.7 6.1 0.00 0.00 0.00 61 1013.1
20260509094517 69 67 3.5 7.8 0.00 0.00 0.00 62 1013.1
20260509093517 68 83 1.7 6.1 0.00 0.00 0.00 63 1013.2
20260509092517 68 75 1.7 5.2 0.00 0.00 0.00 62 1013.2
20260509091517 67 85 1.7 6.1 0.00 0.00 0.00 63 1013.3
20260509090517 66 110 1.7 7.0 0.00 0.00 0.00 65 1013.4
20260509085515 66 94 1.7 6.1 0.00 0.00 0.00 65 1013.4
20260509084517 65 57 3.5 7.8 0.00 0.00 0.00 66 1013.5
20260509083515 65 66 1.7 5.2 0.00 0.00 0.00 67 1013.5
20260509082517 64 76 1.7 5.2 0.00 0.00 0.00 67 1013.6
20260509081515 63 54 0.9 3.5 0.00 0.00 0.00 70 1013.8
20260509080517 62 62 0.9 5.2 0.00 0.00 0.00 70 1013.8
20260509075515 61 67 1.7 6.1 0.00 0.00 0.00 71 1013.9
20260509074517 61 71 2.6 6.1 0.00 0.00 0.00 72 1014.0
20260509073515 60 113 0.9 6.1 0.00 0.00 0.00 74 1014.1
20260509072537 60 68 2.6 7.0 0.00 0.00 0.00 74 1014.0
20260509071515 59 59 2.6 7.0 0.00 0.00 0.00 76 1014.1
20260509070517 58 68 0.9 4.3 0.00 0.00 0.00 77 1014.1
20260509065515 57 50 1.7 6.1 0.00 0.00 0.00 79 1014.1
20260509064517 56 68 2.6 7.0 0.00 0.00 0.00 81 1014.1
20260509063535 55 67 1.7 7.8 0.00 0.00 0.00 84 1013.9
20260509062517 53 61 2.6 8.7 0.00 0.00 0.00 85 1013.8
20260509061515 52 57 3.5 7.0 0.00 0.00 0.00 87 1013.7
20260509060517 51 55 2.6 7.8 0.00 0.00 0.00 89 1013.7
20260509055515 50 50 3.5 7.8 0.00 0.00 0.00 90 1013.8
20260509054517 50 45 0.9 3.5 0.00 0.00 0.00 90 1013.9
20260509053515 49 39 0.9 2.6 0.00 0.00 0.00 90 1013.8
20260509052537 49 51 0.9 2.6 0.00 0.00 0.00 91 1013.6
20260509051516 49 52 0.9 3.5 0.00 0.00 0.00 91 1013.6
20260509050517 48 36 0.9 4.3 0.00 0.00 0.00 91 1013.6
20260509045516 48 47 1.7 4.3 0.00 0.00 0.00 92 1013.6
20260509044517 48 50 1.7 6.1 0.00 0.00 0.00 91 1013.6
20260509043536 48 38 0.9 2.6 0.00 0.00 0.00 91 1013.6
20260509042517 48 40 0.0 0.9 0.00 0.00 0.00 90 1013.5
20260509041515 48 0.0 0.0 0.00 0.00 0.00 90 1013.6
20260509040517 48 0.0 2.6 0.00 0.00 0.00 89 1013.7
20260509035515 49 44 0.0 1.7 0.00 0.00 0.00 89 1013.6
20260509034517 49 80 0.0 2.6 0.00 0.00 0.00 89 1013.7
20260509033517 49 11 0.0 0.9 0.00 0.00 0.00 89 1013.6
20260509032517 49 36 0.9 1.7 0.00 0.00 0.00 89 1013.8
20260509031517 49 0.0 0.0 0.00 0.00 0.00 89 1013.8
20260509030517 49 43 2.6 5.2 0.00 0.00 0.00 89 1013.9
20260509025517 49 47 2.6 5.2 0.00 0.00 0.00 89 1014.0
20260509024517 49 49 1.7 4.3 0.00 0.00 0.00 88 1014.1
20260509023517 50 43 1.7 3.5 0.00 0.00 0.00 88 1014.1
20260509022515 50 47 1.7 4.3 0.00 0.00 0.00 88 1014.0
20260509021516 50 41 1.7 5.2 0.00 0.00 0.00 88 1014.0